Tracking 19717 objects as of 25-Jun-2019
HD Live streaming from Space Station
objects crossing your sky now

COSMOS 1633

Track COSMOS 1633 now!
10-day predictions
COSMOS 1633 is classified as:


NORAD ID: 15592
Int'l Code: 1985-020A
Perigee: 471.8 km
Apogee: 492.0 km
Inclination: 82.5 °
Period: 94.1 minutes
Semi major axis: 6852 km
RCS: 7.2924 m2 (large)
Launch date: March 5, 1985
Source: Commonwealth of Independent States (former USSR) (CIS)
Launch site: PLESETSK MISSILE AND SPACE COMPLEX (PKMTR)
aabbcc
Your satellite tracking list
Your tracking list is empty




NASA's NSSDC Master Catalog

Two Line Element Set (TLE):
1 15592U 85020A   19175.69119482 +.00000773 +00000-0 +24964-4 0  9996
2 15592 082.5384 299.2146 0014727 085.9382 274.3542 15.30355762876749
Source of the keplerian elements: AFSPC